Find OneWeb SL0060

NORAD ID: 45455 Int'l Des: 2020-020 Owner: ONEWEB Country: UK Constellation: oneweb operational
LEOCIRCULARPOLARONEWEB_TYPE

Live Position

Loading 3D Globe...

About OneWeb SL0060

Description loading...

Upcoming Passes

Passes for default location (London). Set your location on the main map for personalized predictions.

Altitude History

Loading altitude history...

Two-Line Element Set

1 45455U 20020AH 26125.75196595 -.00000420 00000-0 -12219-2 0 9995
2 45455 87.8920 29.5048 0002812 73.6596 286.4841 13.11416265296983
Epoch: May 5, 2026 • Age: 8 hours

Current Status

Altitude 1220.7 km
Velocity 7.24 km/s
Sub-Earth Point 3.11°N, 48.69°W
Launch Date Mar 21, 2020
Age 6.1 years
Type internet

Technical Details

Classification Payload
Mass 148.00 kg
Dry Mass 140.00 kg
Total Mass 148.00 kg
Length 1.30 m
Diameter 1.00 m
Span 5.00 m
Shape Trapezoid+2 pan
Manufacturer ONEWUS
Bus Type ARROW
Phase Status In Orbit
Owner/State ONEWEB/UK

Most Searched